Location: *
(35.2348°S, 91.3916°E)
Time: 17:17:08
(UTC+00:00)

SL-4 R/B - Pass Details

Date: 23 October 2019
Orbit: 428 x 667 km, 51.6° (Epoch: 20 November)

Event Time Altitude Azimuth Distance (km) Brightness Sun altitude
Rises 21:59:33 0° 228° (SW) 2,711 5.3 -12.7°
Reaches altitude 10° 22:01:43 10° 227° (SW) 1,854 4.5 -12.3°
Maximum altitude 22:05:58 85° 140° (SE) 599 2.2 -11.5°
Drops below altitude 10° 22:10:32 10° 49° (NE) 1,982 5.2 -10.7°
Sets 22:12:55 0° 48° (NE) 2,915 6.1 -10.2°
